Location: Tamazert
(32.6352°N, 5.2072°W)
Time: 12:03:49
(UTC+00:00)

Vanguard 1 - Visible Passes

Search period start: 05 October 2022 00:00
Search period end: 15 October 2022 00:00
Orbit: 649 x 3832 km, 34.2° (Epoch: 04 October)

Date Brightness Start Highest point End Pass type
(mag) Time Alt. Az. Time Alt. Az. Time Alt. Az.
05 Oct 11.0 19:12:00 10° W 19:19:41 42° SSW 19:23:37 16° SSE visible
06 Oct 11.5 19:33:27 10° W 19:39:57 28° SW 19:43:24 15° SSE visible
07 Oct 11.8 19:55:19 10° W 20:00:07 18° SW 20:03:15 12° S visible
08 Oct 12.3 20:18:51 10° WSW 20:20:09 11° SW 20:21:22 10° SW visible
09 Oct 11.6 18:11:31 10° WNW 18:21:44 46° SW 18:27:38 10° SE visible
10 Oct 12.0 18:33:05 10° W 18:41:59 33° SW 18:47:31 10° SSE visible
11 Oct 12.2 18:54:59 10° W 19:02:05 23° SW 19:06:56 10° S visible
12 Oct 12.6 19:17:45 10° W 19:22:03 14° SW 19:25:29 10° SSW visible
